Temp
14 14 14 13 13 13 13 13 13 13 13 13 13 12 12 12 13 12 12 13 13 13 13 13 13 13 13 13 13 12 12 12 12 13 13 13 12 13 13 13 13 13
14 14 14 13 13 13 13 13 13 13 13 13 13 12 12 12 12 12 12 13 13 13 13 13 13 13 12 13 13 12 12 12 12 13 13 12 12 13 13 13 13 13
14 14 14 13 13 13 13 13 12 13 13 13 13 12 12 12 12 12 12 12 12 13 13 13 13 13 12 12 12 12 12 12 13 13 13 12 12 12 13 13 13 13
14 14 14 13 13 13 13 13 12 12 13 12 12 12 12 12 12 12 12 12 12 12 13 13 13 12 12 12 12 12 12 12 13 13 13 13 13 12 12 12 12 13
14 14 14 13 13 13 13 13 12 12 12 12 12 12 12 12 12 12 12 11 11 11 12 12 12 12 12 12 12 12 12 12 12 12 12 12 12 12 13 12 13 13
14 14 13 13 13 13 12 12 12 12 12 12 12 12 12 12 12 12 12 11 11 11 12 12 11 12 12 12 12 12 12 12 12 12 12 12 12 12 12 12 12 13
14 13 13 13 13 13 12 12 12 12 12 12 12 11 12 12 12 12 12 11 11 11 11 11 11 12 12 12 12 12 12 12 13 13 13 13 12 12 12 12 12 12
13 13 13 13 13 13 12 12 12 12 12 12 12 12 12 12 12 12 12 12 12 12 12 11 11 12 12 12 12 12 12 12 13 13 13 13 12 12 12 12 12 12
13 13 14 14 14 13 12 12 12 12 12 12 11 11 12 12 12 12 12 12 12 12 12 12 12 12 12 12 12 12 12 12 13 13 13 12 12 12 12 12 12 12
13 13 14 14 13 13 12 12 12 12 12 11 12 12 12 12 12 12 12 12 12 12 12 12 12 12 12 12 12 12 12 12 12 12 12 13 13 13 12 12 12 12
13 13 13 13 13 12 12 12 12 12 11 11 11 11 11 11 11 12 12 12 12 12 12 12 12 12 12 12 12 12 12 12 12 12 12 13 13 13 12 12 12 12
12 12 12 12 12 12 12 12 11 11 11 11 11 11 11 11 11 12 12 12 12 12 12 12 12 12 12 12 12 12 12 12 12 12 12 13 13 13 13 12 12 12
12 12 12 12 12 12 12 11 11 11 11 11 11 11 11 11 11 12 12 12 12 12 12 12 12 12 12 12 12 12 12 12 12 12 12 12 12 13 13 12 12 12
12 12 12 12 12 12 12 12 12 12 11 11 11 11 11 12 12 12 12 12 12 12 12 12 12 12 12 12 12 12 12 12 12 12 12 12 12 12 12 12 12 12
13 12 12 12 12 12 12 12 12 11 11 11 11 11 11 12 12 11 12 12 12 12 12 12 12 12 12 12 12 12 12 12 12 12 12 12 12 12 12 12 12 12
12 12 12 12 12 12 11 11 11 11 11 11 11 11 11 11 11 11 12 12 12 12 11 11 12 12 12 12 12 12 12 12 12 12 12 12 12 12 12 12 12 12
11 12 12 12 11 11 11 11 11 11 11 11 11 11 11 11 11 11 11 11 11 11 11 11 11 11 11 12 12 12 12 12 12 12 12 12 12 12 12 12 12 12
11 11 11 11 11 10 11 11 10 10 10 10 10 10 10 10 10 10 11 11 11 11 11 11 11 11 11 11 11 12 12 12 12 12 12 12 12 12 12 12 12 12
10 11 11 11 10 10 10 10 10 10 10 10 10 10 10 10 10 10 10 11 10 10 10 10 10 11 11 11 11 11 11 11 11 11 12 12 12 12 12 12 12 12
10 10 10 10 10 10 10 10 10 10 10 10 10 10 10 10 10 10 10 10 10 10 10 10 10 10 11 11 11 11 11 11 11 11 11 11 11 11 11 11 11 11
10 9 9 10 10 10 10 10 10 10 10 10 10 10 10 10 10 10 10 10 10 10 10 10 10 10 10 10 11 11 11 11 11 11 11 11 11 11 11 11 11 11
9 9 9 9 9 9 10 10 10 10 10 10 10 10 9 9 9 9 9 9 10 10 10 10 10 10 10 10 10 11 11 11 11 11 11 11 11 11 10 10 10 10
8 8 8 9 9 9 9 10 10 10 10 10 10 9 9 9 9 9 9 9 9 10 10 11 11 11 11 11 11 11 11 10 10 10 10 10 10 10 10 10 10 10
8 8 8 8 8 9 9 9 9 9 9 9 9 8 8 9 9 9 9 9 9 10 10 10 11 11 11 11 11 11 10 10 10 10 9 9 9 9 9 9 9 9
8 8 8 8 8 8 8 8 8 8 8 8 8 8 8 8 8 9 9 9 9 9 10 10 10 11 11 11 10 10 10 10 10 9 9 9 9 9 9 9 9 9
7 7 7 7 7 7 8 8 8 8 8 8 7 8 8 8 8 8 8 8 8 9 9 9 9 9 9 9 9 9 9 9 9 9 9 9 9 9 9 9 8 8
Height
1517 1521 1525 1527 1530 1533 1535 1536 1537 1538 1538 1539 1539 1540 1541 1542 1542 1542 1542 1542 1542 1543 1543 1544 1545 1546 1546 1547 1548 1548 1549 1549 1549 1549 1550 1551 1552 1553 1553 1554 1555 1556
1516 1520 1524 1527 1529 1532 1534 1535 1537 1538 1538 1539 1539 1540 1541 1542 1542 1542 1542 1542 1542 1543 1543 1544 1545 1546 1547 1547 1548 1548 1549 1549 1549 1550 1550 1551 1552 1552 1553 1554 1555 1556
1515 1518 1522 1525 1528 1531 1532 1534 1536 1537 1538 1539 1539 1540 1541 1541 1542 1542 1542 1542 1542 1542 1543 1544 1545 1546 1547 1548 1548 1549 1549 1549 1550 1550 1551 1551 1552 1552 1553 1554 1555 1556
1514 1517 1521 1524 1527 1530 1531 1533 1535 1536 1537 1538 1539 1540 1540 1540 1541 1541 1542 1542 1542 1542 1543 1544 1545 1547 1548 1548 1549 1549 1550 1550 1550 1551 1551 1551 1552 1552 1553 1554 1555 1556
1513 1516 1519 1523 1526 1528 1530 1532 1534 1535 1536 1537 1538 1539 1539 1540 1541 1542 1542 1542 1542 1542 1543 1544 1545 1547 1548 1549 1550 1550 1551 1551 1551 1551 1552 1552 1552 1553 1553 1554 1554 1555
1512 1515 1518 1521 1524 1527 1530 1532 1533 1534 1536 1537 1537 1538 1539 1540 1541 1541 1542 1542 1542 1542 1543 1544 1545 1547 1548 1549 1550 1551 1552 1552 1552 1552 1553 1552 1552 1553 1553 1554 1555 1555
1511 1514 1517 1520 1523 1526 1529 1531 1533 1534 1535 1536 1537 1538 1538 1539 1540 1541 1541 1542 1543 1543 1543 1544 1545 1547 1548 1549 1551 1551 1552 1553 1553 1553 1554 1553 1553 1553 1554 1555 1555 1556
1511 1514 1517 1519 1522 1525 1528 1530 1532 1533 1534 1535 1536 1537 1538 1539 1540 1540 1541 1542 1543 1544 1544 1545 1546 1547 1548 1549 1551 1551 1552 1553 1554 1554 1554 1554 1554 1554 1555 1555 1556 1557
1510 1513 1516 1519 1521 1524 1527 1530 1531 1532 1533 1534 1536 1537 1538 1539 1539 1540 1541 1542 1543 1544 1544 1545 1546 1547 1548 1549 1550 1551 1552 1553 1554 1554 1554 1555 1555 1555 1556 1556 1557 1557
1510 1512 1515 1517 1520 1523 1526 1529 1530 1531 1532 1534 1535 1536 1537 1538 1539 1539 1541 1542 1543 1544 1545 1546 1547 1548 1549 1550 1550 1551 1552 1553 1554 1554 1555 1556 1556 1556 1556 1557 1557 1558
1509 1511 1513 1516 1519 1523 1525 1528 1529 1530 1532 1533 1535 1536 1537 1537 1538 1539 1541 1542 1543 1544 1545 1546 1547 1548 1549 1550 1551 1552 1552 1553 1554 1555 1556 1556 1557 1557 1557 1557 1558 1559
1508 1511 1513 1516 1519 1522 1524 1526 1528 1530 1532 1533 1534 1535 1536 1537 1538 1539 1541 1542 1543 1544 1546 1547 1547 1549 1550 1550 1551 1552 1553 1554 1554 1555 1556 1557 1557 1558 1558 1558 1559 1560
1508 1511 1513 1515 1518 1520 1523 1526 1527 1529 1531 1533 1534 1535 1536 1537 1538 1539 1540 1542 1543 1545 1546 1547 1547 1549 1550 1551 1551 1552 1553 1554 1555 1556 1556 1557 1557 1558 1558 1559 1559 1560
1508 1511 1513 1515 1517 1520 1523 1525 1527 1529 1531 1532 1534 1535 1536 1538 1539 1540 1540 1542 1543 1544 1546 1547 1548 1549 1549 1550 1552 1552 1553 1554 1555 1556 1556 1557 1558 1558 1558 1559 1560 1560
1508 1510 1512 1515 1517 1519 1522 1524 1526 1528 1530 1532 1533 1534 1537 1538 1539 1540 1541 1542 1543 1544 1545 1546 1546 1547 1548 1549 1551 1552 1553 1554 1555 1556 1557 1557 1558 1558 1559 1559 1560 1560
1507 1509 1512 1515 1517 1520 1522 1524 1526 1528 1529 1531 1533 1534 1536 1538 1539 1540 1541 1542 1543 1544 1544 1544 1544 1546 1547 1549 1550 1551 1553 1555 1556 1557 1557 1558 1559 1559 1559 1560 1560 1560
1507 1510 1512 1515 1517 1520 1522 1523 1525 1527 1529 1531 1532 1534 1536 1538 1539 1540 1541 1542 1542 1542 1542 1542 1544 1545 1547 1548 1550 1551 1553 1554 1556 1557 1557 1558 1559 1559 1559 1560 1560 1560
1506 1509 1511 1514 1517 1519 1521 1523 1524 1526 1527 1529 1531 1533 1535 1537 1538 1538 1539 1540 1540 1540 1541 1542 1544 1545 1547 1549 1550 1551 1552 1553 1555 1557 1557 1558 1559 1559 1560 1560 1560 1560
1505 1508 1510 1513 1515 1517 1520 1522 1523 1524 1526 1528 1530 1532 1534 1536 1537 1538 1539 1539 1540 1541 1542 1543 1544 1545 1547 1549 1550 1551 1552 1553 1554 1556 1557 1558 1558 1559 1559 1560 1560 1560
1505 1507 1510 1512 1514 1517 1520 1522 1523 1525 1526 1529 1531 1532 1534 1535 1536 1538 1539 1540 1541 1542 1543 1544 1545 1545 1547 1549 1550 1551 1552 1553 1554 1555 1556 1557 1557 1558 1558 1558 1559 1559
1506 1508 1511 1513 1514 1517 1520 1523 1525 1526 1528 1529 1531 1533 1534 1535 1537 1538 1539 1541 1542 1543 1544 1545 1545 1546 1547 1549 1550 1551 1552 1554 1555 1555 1556 1556 1556 1557 1557 1557 1558 1558
1507 1509 1512 1514 1515 1518 1520 1523 1525 1526 1528 1529 1530 1532 1534 1535 1537 1538 1539 1540 1542 1543 1544 1545 1545 1546 1547 1548 1549 1550 1552 1554 1555 1555 1555 1556 1556 1556 1556 1556 1557 1556
1508 1510 1513 1515 1516 1518 1520 1522 1524 1526 1527 1528 1529 1531 1533 1535 1536 1537 1538 1540 1541 1543 1544 1544 1545 1546 1547 1547 1548 1550 1553 1555 1555 1555 1555 1555 1555 1555 1555 1555 1554 1554
1510 1512 1514 1516 1517 1519 1521 1522 1524 1525 1526 1528 1529 1531 1533 1534 1536 1537 1538 1539 1541 1542 1543 1543 1544 1545 1546 1547 1549 1552 1554 1554 1554 1554 1554 1553 1553 1553 1553 1553 1552 1552
1513 1514 1516 1517 1519 1520 1521 1523 1524 1526 1527 1529 1530 1531 1533 1534 1535 1536 1537 1538 1540 1541 1542 1543 1543 1544 1545 1547 1549 1551 1552 1552 1552 1552 1551 1551 1551 1551 1551 1551 1551 1550
1515 1517 1518 1519 1520 1521 1523 1524 1526 1527 1528 1530 1531 1532 1533 1534 1535 1536 1537 1538 1539 1540 1541 1541 1542 1543 1544 1546 1547 1549 1549 1549 1549 1549 1549 1549 1549 1549 1549 1549 1549 1548
Wind_Speed
22 21 19 17 15 16 16 14 13 13 12 11 10 11 11 11 13 12 10 11 10 9 9 8 7 6 6 7 7 6 6 6 6 6 6 7 6 7 9 10 10 9
25 23 21 19 17 17 18 16 14 13 12 10 11 11 11 12 12 11 11 10 8 9 9 8 9 7 5 6 7 6 6 6 6 6 6 7 6 7 8 9 11 11
26 26 23 20 18 18 19 17 14 13 12 11 11 11 12 13 12 10 9 8 7 8 10 10 9 7 5 5 6 6 6 6 6 6 6 7 6 6 8 8 10 12
28 27 24 21 18 17 19 17 14 14 13 12 12 12 12 13 12 10 9 9 7 8 10 11 9 7 6 5 5 5 5 5 6 6 6 7 7 6 7 8 10 10
30 28 25 23 19 17 18 17 15 14 14 13 13 12 13 13 12 10 10 9 8 7 10 11 10 8 8 7 6 6 6 5 6 6 5 6 6 7 7 8 11 11
32 29 26 24 21 19 18 17 15 15 14 14 13 12 13 13 12 11 11 10 8 7 8 10 10 10 9 8 8 7 7 6 6 5 4 4 6 7 8 9 11 12
33 29 27 25 22 20 19 17 16 15 15 14 13 12 12 13 12 11 11 10 8 7 8 10 11 10 10 10 9 8 7 7 7 6 5 5 5 6 8 9 10 10
32 28 28 25 23 21 20 18 16 16 16 15 12 12 12 12 12 11 11 10 9 8 8 10 11 11 11 10 10 10 9 8 7 7 6 6 6 7 8 8 10 11
31 29 29 26 22 22 20 18 17 16 16 15 13 13 12 12 11 12 11 10 10 9 9 10 11 11 11 11 11 11 10 9 9 8 8 7 8 8 9 9 11 12
30 30 30 26 23 22 21 19 17 16 15 14 13 12 12 12 11 11 11 11 10 9 9 11 11 11 11 11 11 10 10 10 10 9 9 8 8 9 10 10 11 12
32 31 29 27 24 22 22 20 17 16 14 14 14 13 12 12 12 12 11 11 10 10 10 11 11 11 11 10 10 10 9 10 10 10 10 9 8 9 10 10 10 11
30 28 25 25 23 22 22 19 17 16 14 13 13 13 12 12 12 12 11 11 11 10 10 10 11 11 11 10 10 9 9 9 10 11 10 9 9 9 9 10 9 10
28 27 24 23 22 21 21 19 18 18 15 13 12 12 12 11 11 12 12 11 10 10 10 10 11 11 10 10 10 10 10 10 10 11 10 10 10 9 9 9 9 9
27 27 25 23 22 20 19 19 18 17 15 12 12 12 11 10 11 11 11 10 10 10 10 10 10 11 11 11 10 10 10 10 10 10 10 10 9 8 9 9 8 8
26 27 26 24 22 20 19 19 18 17 15 13 12 12 11 10 10 11 10 10 10 10 10 11 13 14 15 15 13 12 10 10 10 9 9 9 9 8 8 8 7 8
26 27 26 24 21 19 20 20 18 17 16 14 12 11 10 9 9 10 9 8 9 10 12 14 16 17 17 17 16 14 12 10 9 9 9 8 8 7 7 7 7 7
23 25 25 23 21 19 19 19 18 17 16 15 14 12 11 10 9 10 10 9 11 13 15 17 17 17 19 19 18 16 14 12 10 9 8 8 7 7 7 7 7 7
20 23 24 22 20 20 20 20 20 19 18 18 17 15 13 11 10 13 15 16 16 17 16 17 17 17 19 20 19 18 16 13 9 7 7 7 7 7 7 6 7 7
20 22 25 23 22 22 20 20 22 22 20 18 16 14 13 11 10 13 16 17 16 14 13 14 15 16 17 19 19 18 16 13 9 5 6 7 6 7 7 7 7 8
20 21 23 24 24 23 20 20 21 20 19 17 14 13 13 12 11 11 13 13 12 10 9 10 10 12 14 15 15 14 13 12 9 7 6 6 6 7 8 8 7 8
19 19 20 21 21 20 19 19 19 17 14 12 11 12 12 12 11 11 11 9 8 7 7 8 9 9 10 10 10 11 10 10 10 11 9 8 7 8 9 9 10 10
17 17 18 19 19 18 16 15 17 16 11 9 10 12 13 13 12 12 12 10 9 9 9 9 9 9 8 8 8 8 8 10 12 12 10 8 8 9 9 9 10 11
16 16 17 16 15 16 16 16 17 16 14 13 12 12 12 13 13 13 13 13 12 12 11 10 11 11 12 12 12 12 12 14 15 13 10 9 9 9 10 11 11 14
15 15 16 15 14 15 15 15 14 14 13 13 12 11 11 13 14 14 14 14 14 13 11 11 13 14 16 18 19 18 18 18 16 11 10 11 10 9 11 13 14 17
15 15 15 16 16 15 14 13 12 11 11 11 10 10 11 13 15 15 15 15 14 13 12 13 15 16 17 18 20 20 19 18 16 12 12 13 13 11 11 12 12 15
16 16 15 15 15 14 13 12 11 10 10 9 9 9 10 11 12 12 12 12 11 10 10 11 12 12 13 14 16 17 17 17 17 17 15 15 15 15 16 15 12 13
Wind_Direction
179 180 183 175 178 193 188 185 190 187 185 182 180 181 175 180 183 176 181 188 187 197 206 208 207 200 195 191 184 180 183 186 185 182 184 186 191 188 178 178 174 160
178 177 180 174 178 194 190 184 189 186 184 181 178 176 173 180 180 175 183 181 181 198 198 204 207 191 188 196 186 181 182 180 180 178 176 178 188 186 175 178 172 164
176 171 178 178 181 194 191 184 184 182 182 179 173 172 175 180 177 176 175 160 173 195 185 191 195 173 173 193 181 176 176 176 174 169 169 171 178 179 173 175 170 165
173 168 176 178 180 193 191 183 178 178 179 174 171 174 179 179 176 174 166 161 180 189 179 184 180 160 164 173 166 161 157 164 162 158 169 171 167 171 169 166 164 159
173 169 175 177 177 186 186 179 177 177 175 174 175 178 180 176 171 170 167 170 182 181 178 181 172 162 163 159 158 152 143 150 151 151 169 172 168 170 169 166 163 158
175 173 175 176 176 182 182 176 177 176 173 177 179 178 178 173 169 170 169 171 176 174 174 174 170 167 162 157 160 155 149 154 149 145 154 161 168 170 169 169 162 159
176 175 174 174 175 181 181 176 176 178 178 178 178 177 176 172 170 170 169 169 170 169 169 168 168 167 161 159 161 156 156 157 150 150 147 143 155 157 158 162 155 153
175 175 175 176 177 181 182 177 177 183 183 178 177 180 176 172 173 172 170 170 168 168 169 169 169 167 164 163 163 161 159 157 155 158 152 142 144 144 144 149 146 145
174 173 176 178 178 181 182 178 180 186 183 177 178 183 178 174 176 173 170 171 170 169 170 170 170 170 168 166 167 165 161 160 162 161 155 146 144 145 142 141 142 142
173 173 177 178 177 180 180 177 180 183 179 176 179 181 178 177 178 174 172 172 170 169 168 169 172 172 171 171 171 169 169 170 168 164 160 151 146 150 148 143 143 143
174 174 176 174 173 179 179 175 176 176 174 177 179 179 178 178 177 173 173 173 170 170 169 169 173 174 173 173 173 171 172 174 171 167 164 157 152 152 151 149 148 147
177 176 174 170 170 178 178 171 170 170 169 174 178 178 179 179 176 173 173 173 172 170 169 170 173 174 174 174 174 171 168 168 168 167 165 161 156 150 151 154 152 152
177 176 175 172 171 175 175 170 171 170 165 165 170 174 177 177 175 174 172 172 172 170 171 171 170 172 174 173 172 168 164 163 165 165 164 162 159 155 157 157 155 159
178 177 175 173 173 173 173 174 177 173 163 161 164 168 173 175 177 176 169 168 171 169 169 168 165 170 173 171 171 170 165 164 163 163 164 162 161 162 161 158 161 165
180 178 174 173 174 172 172 174 176 171 161 159 162 161 164 171 176 174 167 166 168 165 163 166 170 176 175 170 170 169 166 166 165 166 169 166 163 165 164 160 163 167
178 177 173 171 169 167 169 170 171 169 161 156 157 156 158 165 168 167 166 164 161 162 171 178 181 182 177 172 171 168 167 173 173 171 174 175 175 175 172 172 172 181
172 173 172 169 162 161 165 167 168 166 158 155 156 157 155 155 158 162 161 163 172 182 187 186 185 185 180 175 173 170 168 170 175 180 179 179 185 186 187 191 192 203
163 170 173 170 162 161 164 167 167 163 161 163 167 167 163 157 164 171 168 168 181 193 195 190 189 191 188 181 176 175 172 163 161 183 193 191 197 199 201 209 208 211
166 171 175 174 171 168 167 166 165 165 169 174 175 175 174 170 173 178 177 179 185 193 197 197 195 193 192 189 186 186 185 174 164 180 199 202 211 214 217 225 227 228
168 170 174 179 182 182 177 170 168 167 168 170 174 177 176 172 170 173 181 191 198 200 203 204 200 195 195 198 199 199 204 206 204 207 211 215 223 228 233 236 237 241
167 170 175 181 182 183 180 174 174 175 169 166 178 184 178 175 175 174 177 186 195 199 200 198 196 195 197 205 210 212 221 232 236 234 234 238 243 242 242 244 245 246
158 164 172 177 177 179 180 178 183 194 206 216 220 218 210 204 201 195 190 193 200 203 205 210 210 204 205 214 219 223 241 255 252 248 248 249 251 249 247 250 254 252
148 156 164 171 175 177 179 182 190 202 215 223 225 223 218 216 214 210 207 211 217 218 219 229 233 227 226 227 221 227 253 265 257 251 253 251 248 249 249 250 251 250
133 142 148 152 156 158 161 168 177 185 191 196 199 200 203 209 211 213 216 219 223 224 224 232 242 243 239 234 230 234 249 256 251 246 246 245 244 250 254 256 258 258
119 127 132 135 137 139 141 145 155 166 177 184 190 196 204 207 204 205 209 209 210 214 214 221 234 238 234 230 231 235 241 244 242 239 237 238 241 246 252 258 266 269
116 123 126 126 128 130 132 136 145 157 166 173 181 188 196 199 197 197 200 199 202 210 212 215 223 225 222 223 227 233 239 244 248 246 243 247 252 255 258 261 268 275